Flag for Pakistan Weather past 2 weeks in Sargodha, Pakistan

Now
82 °F

Passing clouds.


Feels Like: 87 °F
Forecast: 87 / 107 °F
Wind: No wind

Location: Lahore Airport

Current Time: Jul 2, 2015 at 5:15:41 AM

Latest Report: Jul 2, 2015 at 4:55 AM


Visibility: 2 mi

Pressure: 29.62 "Hg

Humidity: 70%

Dew point: 72 °F

Location of SargodhaLocation

Historic Weather in Sargodha — Graph

°F

Sargodha temperature yesterday

Maximum temperature yesterday: 97 °F (at 1:55 PM)
Minimum temperature yesterday: 81 °F (at 4:30 AM)
Average temperature yesterday: 90 °F

Past Weeks' High & Low Weather Summary

 TemperatureHumidityPressure
High109 °F (Jun 18, 1:55 PM)100% (Jun 23, 11:25 AM)29.74 "Hg (Jun 23, 11:25 AM)
Low73 °F (Jun 25, 5:00 AM)23% (Jun 18, 1:55 PM)29.36 "Hg (Jun 22, 4:55 PM)
Average91 °F53%29.51 "Hg
* Reported Jun 17 3:25 AM — Jul 2 3:25 AM, Sargodha, Weather by CustomWeather, © 2015

Note: Actual official high and low records may vary slightly from our data, if they occured in-between our weather recording intervals... More about our weather records

Advertising

Sargodha weather history for previous 24 hours

 ConditionsComfort  
Time TempWeatherWind HumidityBarometerVisibility
3:25 AM
Thu, Jul 2
84 °FPassing clouds.8 mph70%29.65 "Hg2 mi
2:55 AM84 °FPassing clouds.3 mph70%29.62 "Hg2 mi
1:25 AM84 °FClear.No wind70%29.62 "Hg2 mi
12:55 AM86 °FClear.No wind66%29.62 "Hg2 mi
11:25 PM
Wed, Jul 1
88 °FClear.5 mph59%29.62 "Hg2 mi
10:55 PM88 °FClear.3 mph59%29.62 "Hg3 mi
10:25 PM90 °FPassing clouds.3 mph55%29.62 "Hg3 mi
9:55 PM90 °FPassing clouds.3 mph55%29.62 "Hg3 mi
9:25 PM91 °FPassing clouds.No wind52%29.62 "Hg3 mi
8:55 PM91 °FPassing clouds.3 mph52%29.59 "Hg4 mi
8:25 PM91 °FPassing clouds.3 mph52%29.59 "Hg4 mi
7:55 PM91 °FPassing clouds.5 mph52%29.59 "Hg4 mi
7:25 PM93 °FPassing clouds.5 mph49%29.56 "Hg4 mi
6:55 PM93 °FPassing clouds.6 mph49%29.56 "Hg4 mi
6:25 PM93 °FPassing clouds.6 mph49%29.56 "Hg4 mi
5:55 PM95 °FPassing clouds.6 mph47%29.56 "Hg4 mi
5:25 PM95 °FPassing clouds.7 mph47%29.56 "Hg4 mi
4:55 PM97 °FPassing clouds.7 mph44%29.56 "Hg4 mi
3:55 PM97 °FScattered clouds.6 mph44%29.56 "Hg4 mi
3:25 PM97 °FScattered clouds.6 mph47%29.59 "Hg4 mi
2:55 PM97 °FScattered clouds.6 mph47%29.59 "Hg4 mi
2:25 PM97 °FScattered clouds.6 mph47%29.59 "Hg4 mi
1:55 PM97 °FScattered clouds.5 mph47%29.62 "Hg4 mi
1:25 PM95 °FScattered clouds.7 mph50%29.62 "Hg4 mi
12:55 PM95 °FScattered clouds.7 mph50%29.65 "Hg4 mi
12:25 PM95 °FScattered clouds.6 mph50%29.65 "Hg4 mi
11:55 AM93 °FScattered clouds.5 mph53%29.65 "Hg4 mi
11:25 AM93 °FScattered clouds.5 mph56%29.65 "Hg4 mi
10:55 AM93 °FScattered clouds.6 mph56%29.68 "Hg4 mi
10:25 AM93 °FScattered clouds.6 mph56%29.65 "Hg3 mi
9:55 AM91 °FScattered clouds.7 mph59%29.65 "Hg3 mi
9:25 AM90 °FScattered clouds.7 mph63%29.65 "Hg2 mi
8:55 AM88 °FScattered clouds.7 mph66%29.65 "Hg2 mi
8:25 AMN/ASmoke.5 mphN/AN/A2 mi
7:55 AM86 °FScattered clouds.5 mph75%29.65 "Hg2 mi
7:25 AM84 °FScattered clouds.5 mph79%29.65 "Hg2 mi
6:55 AM84 °FBroken clouds.No wind79%29.65 "Hg1 mi
6:30 AM82 °FFog.No wind79%29.62 "Hg1 mi
6:00 AM81 °FFog.No wind84%29.62 "Hg1 mi
Weather by CustomWeather, © 2015

See weather overviewHow to use our weather pages